2020,08,11,00,00,00,184.0,,,,,,,,,,,,,,
2020,08,11,00,01,00,179.6,,,,,,,,,,,,,,
2020,08,11,00,02,00,178.6,,,,,,,,,,,,,,
2020,08,11,00,03,00,176.2,,,,,,,,,,,,,,
2020,08,11,00,04,00,171.6,,,,,,,,,,,,,,
2020,08,11,00,05,00,178.1,,,,,,,,,,,,,,
2020,08,11,00,06,00,177.4,,,,,,,,,,,,,,
2020,08,11,00,07,00,173.2,,,,,,,,,,,,,,
2020,08,11,00,08,00,174.6,,,,,,,,,,,,,,
2020,08,11,00,09,00,173.6,,,,,,,,,,,,,,
2020,08,11,00,10,00,160.6,,,,,,,,,,,,,,
2020,08,11,00,11,00,164.7,,,,,,,,,,,,,,
2020,08,11,00,12,00,153.8,,,,,,,,,,,,,,
2020,08,11,00,13,00,152.2,,,,,,,,,,,,,,
2020,08,11,00,14,00,153.1,,,,,,,,,,,,,,
2020,08,11,00,15,00,156.8,,,,,,,,,,,,,,
2020,08,11,00,16,00,161.0,,,,,,,,,,,,,,
2020,08,11,00,17,00,164.5,,,,,,,,,,,,,,
2020,08,11,00,18,00,160.4,,,,,,,,,,,,,,
2020,08,11,00,19,00,164.6,,,,,,,,,,,,,,
2020,08,11,00,20,00,165.0,,,,,,,,,,,,,,
2020,08,11,00,21,00,167.5,,,,,,,,,,,,,,
2020,08,11,00,22,00,169.9,,,,,,,,,,,,,,
2020,08,11,00,23,00,167.4,,,,,,,,,,,,,,
2020,08,11,00,24,00,165.8,,,,,,,,,,,,,,
2020,08,11,00,25,00,171.2,,,,,,,,,,,,,,
2020,08,11,00,26,00,174.7,,,,,,,,,,,,,,
2020,08,11,00,27,00,152.6,,,,,,,,,,,,,,
2020,08,11,00,28,00,149.8,,,,,,,,,,,,,,
2020,08,11,00,29,00,148.4,,,,,,,,,,,,,,
2020,08,11,00,30,00,150.3,,,,,,,,,,,,,,
2020,08,11,00,31,00,151.9,,,,,,,,,,,,,,
2020,08,11,00,32,00,152.1,,,,,,,,,,,,,,
2020,08,11,00,33,00,147.6,,,,,,,,,,,,,,
2020,08,11,00,34,00,147.2,,,,,,,,,,,,,,
2020,08,11,00,35,00,148.2,,,,,,,,,,,,,,
2020,08,11,00,36,00,146.5,,,,,,,,,,,,,,
2020,08,11,00,37,00,148.0,,,,,,,,,,,,,,
2020,08,11,00,38,00,149.6,,,,,,,,,,,,,,
2020,08,11,00,39,00,152.1,,,,,,,,,,,,,,
2020,08,11,00,40,00,150.5,,,,,,,,,,,,,,
2020,08,11,00,41,00,151.4,,,,,,,,,,,,,,
2020,08,11,00,42,00,158.6,,,,,,,,,,,,,,
2020,08,11,00,43,00,158.5,,,,,,,,,,,,,,
2020,08,11,00,44,00,156.7,,,,,,,,,,,,,,
2020,08,11,00,45,00,152.4,,,,,,,,,,,,,,
2020,08,11,00,46,00,152.1,,,,,,,,,,,,,,
2020,08,11,00,47,00,151.5,,,,,,,,,,,,,,
2020,08,11,00,48,00,151.3,,,,,,,,,,,,,,
2020,08,11,00,49,00,152.0,,,,,,,,,,,,,,
2020,08,11,00,50,00,151.9,,,,,,,,,,,,,,
2020,08,11,00,51,00,152.1,,,,,,,,,,,,,,
2020,08,11,00,52,00,152.1,,,,,,,,,,,,,,
2020,08,11,00,53,00,152.2,,,,,,,,,,,,,,
2020,08,11,00,54,00,152.1,,,,,,,,,,,,,,
2020,08,11,00,55,00,152.1,,,,,,,,,,,,,,
2020,08,11,00,56,00,151.2,,,,,,,,,,,,,,
2020,08,11,00,57,00,147.7,,,,,,,,,,,,,,
2020,08,11,00,58,00,147.3,,,,,,,,,,,,,,
2020,08,11,00,59,00,146.9,,,,,,,,,,,,,,
2020,08,11,01,00,00,150.6,,,,,,,,,,,,,,
2020,08,11,01,01,00,152.1,,,,,,,,,,,,,,
2020,08,11,01,02,00,149.3,,,,,,,,,,,,,,
2020,08,11,01,03,00,142.8,,,,,,,,,,,,,,
2020,08,11,01,04,00,143.9,,,,,,,,,,,,,,
2020,08,11,01,05,00,141.3,,,,,,,,,,,,,,
2020,08,11,01,06,00,144.1,,,,,,,,,,,,,,
2020,08,11,01,07,00,141.1,,,,,,,,,,,,,,
2020,08,11,01,08,00,141.2,,,,,,,,,,,,,,
2020,08,11,01,09,00,143.5,,,,,,,,,,,,,,
2020,08,11,01,10,00,143.6,,,,,,,,,,,,,,
2020,08,11,01,11,00,144.3,,,,,,,,,,,,,,
2020,08,11,01,12,00,144.5,,,,,,,,,,,,,,
2020,08,11,01,13,00,147.8,,,,,,,,,,,,,,
2020,08,11,01,14,00,145.6,,,,,,,,,,,,,,
2020,08,11,01,15,00,145.3,,,,,,,,,,,,,,
2020,08,11,01,16,00,146.4,,,,,,,,,,,,,,
2020,08,11,01,17,00,148.7,,,,,,,,,,,,,,
2020,08,11,01,18,00,151.4,,,,,,,,,,,,,,
2020,08,11,01,19,00,151.8,,,,,,,,,,,,,,
2020,08,11,01,20,00,151.3,,,,,,,,,,,,,,
2020,08,11,01,21,00,151.5,,,,,,,,,,,,,,
2020,08,11,01,22,00,152.1,,,,,,,,,,,,,,
2020,08,11,01,23,00,152.1,,,,,,,,,,,,,,
2020,08,11,01,24,00,152.1,,,,,,,,,,,,,,
2020,08,11,01,25,00,152.1,,,,,,,,,,,,,,
2020,08,11,01,26,00,152.1,,,,,,,,,,,,,,
2020,08,11,01,27,00,150.7,,,,,,,,,,,,,,
2020,08,11,01,28,00,150.3,,,,,,,,,,,,,,
2020,08,11,01,29,00,145.7,,,,,,,,,,,,,,
2020,08,11,01,30,00,140.8,,,,,,,,,,,,,,
2020,08,11,01,31,00,139.5,,,,,,,,,,,,,,
2020,08,11,01,32,00,139.1,,,,,,,,,,,,,,
2020,08,11,01,33,00,140.9,,,,,,,,,,,,,,
2020,08,11,01,34,00,138.0,,,,,,,,,,,,,,
2020,08,11,01,35,00,136.1,,,,,,,,,,,,,,
2020,08,11,01,36,00,137.4,,,,,,,,,,,,,,
2020,08,11,01,37,00,135.5,,,,,,,,,,,,,,
2020,08,11,01,38,00,137.2,,,,,,,,,,,,,,
2020,08,11,01,39,00,141.2,,,,,,,,,,,,,,
2020,08,11,01,40,00,136.3,,,,,,,,,,,,,,
2020,08,11,01,41,00,146.7,,,,,,,,,,,,,,
2020,08,11,01,42,00,138.9,,,,,,,,,,,,,,
2020,08,11,01,43,00,137.1,,,,,,,,,,,,,,
2020,08,11,01,44,00,139.9,,,,,,,,,,,,,,
2020,08,11,01,45,00,136.7,,,,,,,,,,,,,,
2020,08,11,01,46,00,135.7,,,,,,,,,,,,,,
2020,08,11,01,47,00,133.8,,,,,,,,,,,,,,
2020,08,11,01,48,00,134.4,,,,,,,,,,,,,,
2020,08,11,01,49,00,132.3,,,,,,,,,,,,,,
2020,08,11,01,50,00,128.8,,,,,,,,,,,,,,
2020,08,11,01,51,00,128.5,,,,,,,,,,,,,,
2020,08,11,01,52,00,138.2,,,,,,,,,,,,,,
2020,08,11,01,53,00,143.1,,,,,,,,,,,,,,
2020,08,11,01,54,00,141.8,,,,,,,,,,,,,,
2020,08,11,01,55,00,133.1,,,,,,,,,,,,,,
2020,08,11,01,56,00,139.2,,,,,,,,,,,,,,
2020,08,11,01,57,00,137.4,,,,,,,,,,,,,,
2020,08,11,01,58,00,143.2,,,,,,,,,,,,,,
2020,08,11,01,59,00,150.3,,,,,,,,,,,,,,
2020,08,11,02,00,00,148.6,,,,,,,,,,,,,,
2020,08,11,02,01,00,145.2,,,,,,,,,,,,,,
2020,08,11,02,02,00,148.1,,,,,,,,,,,,,,
2020,08,11,02,03,00,148.1,,,,,,,,,,,,,,
2020,08,11,02,04,00,142.7,,,,,,,,,,,,,,
2020,08,11,02,05,00,137.5,,,,,,,,,,,,,,
2020,08,11,02,06,00,140.1,,,,,,,,,,,,,,
2020,08,11,02,07,00,138.9,,,,,,,,,,,,,,
2020,08,11,02,08,00,133.4,,,,,,,,,,,,,,
2020,08,11,02,09,00,138.0,,,,,,,,,,,,,,
2020,08,11,02,10,00,139.7,,,,,,,,,,,,,,
2020,08,11,02,11,00,146.2,,,,,,,,,,,,,,
2020,08,11,02,12,00,150.8,,,,,,,,,,,,,,
2020,08,11,02,13,00,147.9,,,,,,,,,,,,,,
2020,08,11,02,14,00,147.1,,,,,,,,,,,,,,
2020,08,11,02,15,00,138.5,,,,,,,,,,,,,,
2020,08,11,02,16,00,136.5,,,,,,,,,,,,,,
2020,08,11,02,17,00,128.8,,,,,,,,,,,,,,
2020,08,11,02,18,00,126.8,,,,,,,,,,,,,,
2020,08,11,02,19,00,126.3,,,,,,,,,,,,,,
2020,08,11,02,20,00,124.0,,,,,,,,,,,,,,
2020,08,11,02,21,00,126.3,,,,,,,,,,,,,,
2020,08,11,02,22,00,129.0,,,,,,,,,,,,,,
2020,08,11,02,23,00,127.5,,,,,,,,,,,,,,
2020,08,11,02,24,00,132.4,,,,,,,,,,,,,,
2020,08,11,02,25,00,136.1,,,,,,,,,,,,,,
2020,08,11,02,26,00,133.3,,,,,,,,,,,,,,
2020,08,11,02,27,00,139.7,,,,,,,,,,,,,,
2020,08,11,02,28,00,141.2,,,,,,,,,,,,,,
2020,08,11,02,29,00,142.3,,,,,,,,,,,,,,
2020,08,11,02,30,00,137.6,,,,,,,,,,,,,,
2020,08,11,02,31,00,137.3,,,,,,,,,,,,,,
2020,08,11,02,32,00,135.4,,,,,,,,,,,,,,
2020,08,11,02,33,00,134.7,,,,,,,,,,,,,,
2020,08,11,02,34,00,135.0,,,,,,,,,,,,,,
2020,08,11,02,35,00,135.6,,,,,,,,,,,,,,
2020,08,11,02,36,00,136.2,,,,,,,,,,,,,,
2020,08,11,02,37,00,136.3,,,,,,,,,,,,,,
2020,08,11,02,38,00,136.5,,,,,,,,,,,,,,
2020,08,11,02,39,00,137.2,,,,,,,,,,,,,,
2020,08,11,02,40,00,139.8,,,,,,,,,,,,,,
2020,08,11,02,41,00,138.2,,,,,,,,,,,,,,
2020,08,11,02,42,00,140.4,,,,,,,,,,,,,,
2020,08,11,02,43,00,141.2,,,,,,,,,,,,,,
2020,08,11,02,44,00,133.6,,,,,,,,,,,,,,
2020,08,11,02,45,00,129.5,,,,,,,,,,,,,,
2020,08,11,02,46,00,125.7,,,,,,,,,,,,,,
2020,08,11,02,47,00,123.3,,,,,,,,,,,,,,
2020,08,11,02,48,00,118.4,,,,,,,,,,,,,,
2020,08,11,02,49,00,114.2,,,,,,,,,,,,,,
2020,08,11,02,50,00,114.9,,,,,,,,,,,,,,
2020,08,11,02,51,00,113.0,,,,,,,,,,,,,,
2020,08,11,02,52,00,115.4,,,,,,,,,,,,,,
2020,08,11,02,53,00,112.6,,,,,,,,,,,,,,
2020,08,11,02,54,00,107.2,,,,,,,,,,,,,,
2020,08,11,02,55,00,110.5,,,,,,,,,,,,,,
2020,08,11,02,56,00,110.9,,,,,,,,,,,,,,
2020,08,11,02,57,00,113.2,,,,,,,,,,,,,,
2020,08,11,02,58,00,124.8,,,,,,,,,,,,,,
2020,08,11,02,59,00,118.5,,,,,,,,,,,,,,
2020,08,11,03,00,00,114.7,,,,,,,,,,,,,,
2020,08,11,03,01,00,115.6,,,,,,,,,,,,,,
2020,08,11,03,02,00,117.8,,,,,,,,,,,,,,
2020,08,11,03,03,00,128.3,,,,,,,,,,,,,,
2020,08,11,03,04,00,131.6,,,,,,,,,,,,,,
2020,08,11,03,05,00,130.1,,,,,,,,,,,,,,
2020,08,11,03,06,00,125.3,,,,,,,,,,,,,,
2020,08,11,03,07,00,125.3,,,,,,,,,,,,,,
2020,08,11,03,08,00,128.2,,,,,,,,,,,,,,
2020,08,11,03,09,00,128.0,,,,,,,,,,,,,,
2020,08,11,03,10,00,128.6,,,,,,,,,,,,,,
2020,08,11,03,11,00,133.4,,,,,,,,,,,,,,
2020,08,11,03,12,00,135.0,,,,,,,,,,,,,,
2020,08,11,03,13,00,137.4,,,,,,,,,,,,,,
2020,08,11,03,14,00,136.2,,,,,,,,,,,,,,
2020,08,11,03,15,00,138.6,,,,,,,,,,,,,,
2020,08,11,03,16,00,134.2,,,,,,,,,,,,,,
2020,08,11,03,17,00,133.0,,,,,,,,,,,,,,
2020,08,11,03,18,00,134.1,,,,,,,,,,,,,,
2020,08,11,03,19,00,138.1,,,,,,,,,,,,,,
2020,08,11,03,20,00,140.7,,,,,,,,,,,,,,
2020,08,11,03,21,00,142.3,,,,,,,,,,,,,,
2020,08,11,03,22,00,143.4,,,,,,,,,,,,,,
2020,08,11,03,23,00,142.1,,,,,,,,,,,,,,
2020,08,11,03,24,00,138.1,,,,,,,,,,,,,,
2020,08,11,03,25,00,143.1,,,,,,,,,,,,,,
2020,08,11,03,26,00,146.5,,,,,,,,,,,,,,
2020,08,11,03,27,00,141.6,,,,,,,,,,,,,,
2020,08,11,03,28,00,138.6,,,,,,,,,,,,,,
2020,08,11,03,29,00,141.2,,,,,,,,,,,,,,
2020,08,11,03,30,00,140.8,,,,,,,,,,,,,,
2020,08,11,03,31,00,139.4,,,,,,,,,,,,,,
2020,08,11,03,32,00,139.8,,,,,,,,,,,,,,
2020,08,11,03,33,00,140.0,,,,,,,,,,,,,,
2020,08,11,03,34,00,138.1,,,,,,,,,,,,,,
2020,08,11,03,35,00,135.8,,,,,,,,,,,,,,
2020,08,11,03,36,00,135.4,,,,,,,,,,,,,,
2020,08,11,03,37,00,137.8,,,,,,,,,,,,,,
2020,08,11,03,38,00,137.4,,,,,,,,,,,,,,
2020,08,11,03,39,00,137.1,,,,,,,,,,,,,,
2020,08,11,03,40,00,137.2,,,,,,,,,,,,,,
2020,08,11,03,41,00,136.9,,,,,,,,,,,,,,
2020,08,11,03,42,00,139.2,,,,,,,,,,,,,,
2020,08,11,03,43,00,139.1,,,,,,,,,,,,,,
2020,08,11,03,44,00,144.0,,,,,,,,,,,,,,
2020,08,11,03,45,00,147.0,,,,,,,,,,,,,,
2020,08,11,03,46,00,146.8,,,,,,,,,,,,,,
2020,08,11,03,47,00,148.0,,,,,,,,,,,,,,
2020,08,11,03,48,00,147.9,,,,,,,,,,,,,,
2020,08,11,03,49,00,150.8,,,,,,,,,,,,,,
2020,08,11,03,50,00,151.2,,,,,,,,,,,,,,
2020,08,11,03,51,00,143.9,,,,,,,,,,,,,,
2020,08,11,03,52,00,148.0,,,,,,,,,,,,,,
2020,08,11,03,53,00,151.1,,,,,,,,,,,,,,
2020,08,11,03,54,00,143.8,,,,,,,,,,,,,,
2020,08,11,03,55,00,140.2,,,,,,,,,,,,,,
2020,08,11,03,56,00,145.9,,,,,,,,,,,,,,
2020,08,11,03,57,00,149.7,,,,,,,,,,,,,,
2020,08,11,03,58,00,147.5,,,,,,,,,,,,,,
2020,08,11,03,59,00,147.2,,,,,,,,,,,,,,
2020,08,11,04,00,00,146.0,,,,,,,,,,,,,,
2020,08,11,04,01,00,142.6,,,,,,,,,,,,,,
2020,08,11,04,02,00,,,,,,,,,,,,,,,
2020,08,11,04,03,00,,,,,,,,,,,,,,,
2020,08,11,04,04,00,,,,,,,,,,,,,,,
2020,08,11,04,05,00,,,,,,,,,,,,,,,
2020,08,11,04,06,00,,,,,,,,,,,,,,,
2020,08,11,04,07,00,,,,,,,,,,,,,,,
2020,08,11,04,08,00,,,,,,,,,,,,,,,
2020,08,11,04,09,00,,,,,,,,,,,,,,,
2020,08,11,04,10,00,,,,,,,,,,,,,,,
2020,08,11,04,11,00,,,,,,,,,,,,,,,
2020,08,11,04,12,00,,,,,,,,,,,,,,,
2020,08,11,04,13,00,,,,,,,,,,,,,,,
2020,08,11,04,14,00,,,,,,,,,,,,,,,
2020,08,11,04,15,00,,,,,,,,,,,,,,,
2020,08,11,04,16,00,,,,,,,,,,,,,,,
2020,08,11,04,17,00,,,,,,,,,,,,,,,
2020,08,11,04,18,00,,,,,,,,,,,,,,,
2020,08,11,04,19,00,,,,,,,,,,,,,,,
2020,08,11,04,20,00,,,,,,,,,,,,,,,
2020,08,11,04,21,00,,,,,,,,,,,,,,,
2020,08,11,04,22,00,,,,,,,,,,,,,,,
2020,08,11,04,23,00,,,,,,,,,,,,,,,
2020,08,11,04,24,00,,,,,,,,,,,,,,,
2020,08,11,04,25,00,,,,,,,,,,,,,,,
2020,08,11,04,26,00,,,,,,,,,,,,,,,
2020,08,11,04,27,00,,,,,,,,,,,,,,,
2020,08,11,04,28,00,,,,,,,,,,,,,,,
2020,08,11,04,29,00,,,,,,,,,,,,,,,
2020,08,11,04,30,00,,,,,,,,,,,,,,,
2020,08,11,04,31,00,,,,,,,,,,,,,,,
2020,08,11,04,32,00,,,,,,,,,,,,,,,
2020,08,11,04,33,00,,,,,,,,,,,,,,,
2020,08,11,04,34,00,,,,,,,,,,,,,,,
2020,08,11,04,35,00,,,,,,,,,,,,,,,
2020,08,11,04,36,00,,,,,,,,,,,,,,,
2020,08,11,04,37,00,,,,,,,,,,,,,,,
2020,08,11,04,38,00,,,,,,,,,,,,,,,
2020,08,11,04,39,00,,,,,,,,,,,,,,,
2020,08,11,04,40,00,,,,,,,,,,,,,,,
2020,08,11,04,41,00,,,,,,,,,,,,,,,
2020,08,11,04,42,00,,,,,,,,,,,,,,,
2020,08,11,04,43,00,,,,,,,,,,,,,,,
2020,08,11,04,44,00,,,,,,,,,,,,,,,
2020,08,11,04,45,00,,,,,,,,,,,,,,,
2020,08,11,04,46,00,,,,,,,,,,,,,,,
2020,08,11,04,47,00,,,,,,,,,,,,,,,
2020,08,11,04,48,00,,,,,,,,,,,,,,,
2020,08,11,04,49,00,,,,,,,,,,,,,,,
2020,08,11,04,50,00,,,,,,,,,,,,,,,
2020,08,11,04,51,00,,,,,,,,,,,,,,,
2020,08,11,04,52,00,,,,,,,,,,,,,,,
2020,08,11,04,53,00,,,,,,,,,,,,,,,
2020,08,11,04,54,00,,,,,,,,,,,,,,,
2020,08,11,04,55,00,,,,,,,,,,,,,,,
2020,08,11,04,56,00,,,,,,,,,,,,,,,
2020,08,11,04,57,00,,,,,,,,,,,,,,,
2020,08,11,04,58,00,,,,,,,,,,,,,,,
2020,08,11,04,59,00,,,,,,,,,,,,,,,
2020,08,11,05,00,00,,,,,,,,,,,,,,,
2020,08,11,05,01,00,,,,,,,,,,,,,,,
2020,08,11,05,02,00,,,,,,,,,,,,,,,
2020,08,11,05,03,00,,,,,,,,,,,,,,,
2020,08,11,05,04,00,,,,,,,,,,,,,,,
2020,08,11,05,05,00,,,,,,,,,,,,,,,
2020,08,11,05,06,00,,,,,,,,,,,,,,,
2020,08,11,05,07,00,,,,,,,,,,,,,,,
2020,08,11,05,08,00,,,,,,,,,,,,,,,
2020,08,11,05,09,00,,,,,,,,,,,,,,,
2020,08,11,05,10,00,,,,,,,,,,,,,,,
2020,08,11,05,11,00,,,,,,,,,,,,,,,
2020,08,11,05,12,00,,,,,,,,,,,,,,,
2020,08,11,05,13,00,,,,,,,,,,,,,,,
2020,08,11,05,14,00,,,,,,,,,,,,,,,
2020,08,11,05,15,00,,,,,,,,,,,,,,,
2020,08,11,05,16,00,,,,,,,,,,,,,,,
2020,08,11,05,17,00,,,,,,,,,,,,,,,
2020,08,11,05,18,00,,,,,,,,,,,,,,,
2020,08,11,05,19,00,,,,,,,,,,,,,,,
2020,08,11,05,20,00,,,,,,,,,,,,,,,
2020,08,11,05,21,00,,,,,,,,,,,,,,,
2020,08,11,05,22,00,,,,,,,,,,,,,,,
2020,08,11,05,23,00,,,,,,,,,,,,,,,
2020,08,11,05,24,00,,,,,,,,,,,,,,,
2020,08,11,05,25,00,,,,,,,,,,,,,,,
2020,08,11,05,26,00,175.2,,,,,,,,,,,,,,
2020,08,11,05,27,00,164.5,,,,,,,,,,,,,,
2020,08,11,05,28,00,162.8,,,,,,,,,,,,,,
2020,08,11,05,29,00,175.3,,,,,,,,,,,,,,
2020,08,11,05,30,00,172.7,,,,,,,,,,,,,,
2020,08,11,05,31,00,173.9,,,,,,,,,,,,,,
2020,08,11,05,32,00,181.0,,,,,,,,,,,,,,
2020,08,11,05,33,00,192.1,,,,,,,,,,,,,,
2020,08,11,05,34,00,197.2,,,,,,,,,,,,,,
2020,08,11,05,35,00,205.0,,,,,,,,,,,,,,
2020,08,11,05,36,00,190.4,,,,,,,,,,,,,,
2020,08,11,05,37,00,183.8,,,,,,,,,,,,,,
2020,08,11,05,38,00,202.2,,,,,,,,,,,,,,
2020,08,11,05,39,00,227.2,,,,,,,,,,,,,,
2020,08,11,05,40,00,207.0,,,,,,,,,,,,,,
2020,08,11,05,41,00,220.0,,,,,,,,,,,,,,
2020,08,11,05,42,00,227.4,,,,,,,,,,,,,,
2020,08,11,05,43,00,239.2,,,,,,,,,,,,,,
2020,08,11,05,44,00,245.4,,,,,,,,,,,,,,
2020,08,11,05,45,00,248.5,,,,,,,,,,,,,,
2020,08,11,05,46,00,247.8,,,,,,,,,,,,,,
2020,08,11,05,47,00,233.2,,,,,,,,,,,,,,
2020,08,11,05,48,00,209.3,,,,,,,,,,,,,,
2020,08,11,05,49,00,201.9,,,,,,,,,,,,,,
2020,08,11,05,50,00,201.1,,,,,,,,,,,,,,
2020,08,11,05,51,00,207.2,,,,,,,,,,,,,,
2020,08,11,05,52,00,231.2,,,,,,,,,,,,,,
2020,08,11,05,53,00,207.4,,,,,,,,,,,,,,
2020,08,11,05,54,00,198.0,,,,,,,,,,,,,,
2020,08,11,05,55,00,199.5,,,,,,,,,,,,,,
2020,08,11,05,56,00,213.9,,,,,,,,,,,,,,
2020,08,11,05,57,00,207.8,,,,,,,,,,,,,,
2020,08,11,05,58,00,203.9,,,,,,,,,,,,,,
2020,08,11,05,59,00,218.1,,,,,,,,,,,,,,
2020,08,11,06,00,00,203.5,,,,,,,,,,,,,,
2020,08,11,06,01,00,220.2,,,,,,,,,,,,,,
2020,08,11,06,02,00,226.9,,,,,,,,,,,,,,
2020,08,11,06,03,00,223.9,,,,,,,,,,,,,,
2020,08,11,06,04,00,219.5,,,,,,,,,,,,,,
2020,08,11,06,05,00,206.7,,,,,,,,,,,,,,
2020,08,11,06,06,00,200.1,,,,,,,,,,,,,,
2020,08,11,06,07,00,203.0,,,,,,,,,,,,,,
2020,08,11,06,08,00,203.7,,,,,,,,,,,,,,
2020,08,11,06,09,00,206.0,,,,,,,,,,,,,,
2020,08,11,06,10,00,196.9,,,,,,,,,,,,,,
2020,08,11,06,11,00,192.1,,,,,,,,,,,,,,
2020,08,11,06,12,00,199.7,,,,,,,,,,,,,,
2020,08,11,06,13,00,204.3,,,,,,,,,,,,,,
2020,08,11,06,14,00,204.4,,,,,,,,,,,,,,
2020,08,11,06,15,00,208.3,,,,,,,,,,,,,,
2020,08,11,06,16,00,209.0,,,,,,,,,,,,,,
2020,08,11,06,17,00,202.8,,,,,,,,,,,,,,
2020,08,11,06,18,00,203.6,,,,,,,,,,,,,,
2020,08,11,06,19,00,209.9,,,,,,,,,,,,,,
2020,08,11,06,20,00,225.9,,,,,,,,,,,,,,
2020,08,11,06,21,00,227.7,,,,,,,,,,,,,,
2020,08,11,06,22,00,217.9,,,,,,,,,,,,,,
2020,08,11,06,23,00,215.3,,,,,,,,,,,,,,
2020,08,11,06,24,00,209.8,,,,,,,,,,,,,,
2020,08,11,06,25,00,223.0,,,,,,,,,,,,,,
2020,08,11,06,26,00,218.8,,,,,,,,,,,,,,
2020,08,11,06,27,00,223.5,,,,,,,,,,,,,,
2020,08,11,06,28,00,226.9,,,,,,,,,,,,,,
2020,08,11,06,29,00,229.1,,,,,,,,,,,,,,
2020,08,11,06,30,00,233.7,,,,,,,,,,,,,,
2020,08,11,06,31,00,237.1,,,,,,,,,,,,,,
2020,08,11,06,32,00,234.6,,,,,,,,,,,,,,
2020,08,11,06,33,00,237.1,,,,,,,,,,,,,,
2020,08,11,06,34,00,242.0,,,,,,,,,,,,,,
2020,08,11,06,35,00,237.9,,,,,,,,,,,,,,
2020,08,11,06,36,00,245.3,,,,,,,,,,,,,,
2020,08,11,06,37,00,229.7,,,,,,,,,,,,,,
2020,08,11,06,38,00,244.3,,,,,,,,,,,,,,
2020,08,11,06,39,00,243.5,,,,,,,,,,,,,,
2020,08,11,06,40,00,247.5,,,,,,,,,,,,,,
2020,08,11,06,41,00,249.8,,,,,,,,,,,,,,
2020,08,11,06,42,00,260.8,,,,,,,,,,,,,,
2020,08,11,06,43,00,259.9,,,,,,,,,,,,,,
2020,08,11,06,44,00,258.5,,,,,,,,,,,,,,
2020,08,11,06,45,00,258.5,,,,,,,,,,,,,,
2020,08,11,06,46,00,233.2,,,,,,,,,,,,,,
2020,08,11,06,47,00,238.7,,,,,,,,,,,,,,
2020,08,11,06,48,00,220.0,,,,,,,,,,,,,,
2020,08,11,06,49,00,215.9,,,,,,,,,,,,,,
2020,08,11,06,50,00,216.6,,,,,,,,,,,,,,
2020,08,11,06,51,00,224.1,,,,,,,,,,,,,,
2020,08,11,06,52,00,244.8,,,,,,,,,,,,,,
2020,08,11,06,53,00,260.8,,,,,,,,,,,,,,
2020,08,11,06,54,00,244.6,,,,,,,,,,,,,,
2020,08,11,06,55,00,249.5,,,,,,,,,,,,,,
2020,08,11,06,56,00,253.9,,,,,,,,,,,,,,
2020,08,11,06,57,00,253.1,,,,,,,,,,,,,,
2020,08,11,06,58,00,262.5,,,,,,,,,,,,,,
2020,08,11,06,59,00,247.1,,,,,,,,,,,,,,
2020,08,11,07,00,00,242.3,,,,,,,,,,,,,,
2020,08,11,07,01,00,253.0,,,,,,,,,,,,,,
2020,08,11,07,02,00,255.9,,,,,,,,,,,,,,
2020,08,11,07,03,00,247.1,,,,,,,,,,,,,,
2020,08,11,07,04,00,247.8,,,,,,,,,,,,,,
2020,08,11,07,05,00,253.7,,,,,,,,,,,,,,
2020,08,11,07,06,00,260.5,,,,,,,,,,,,,,
2020,08,11,07,07,00,261.7,,,,,,,,,,,,,,
2020,08,11,07,08,00,258.1,,,,,,,,,,,,,,
2020,08,11,07,09,00,240.4,,,,,,,,,,,,,,
2020,08,11,07,10,00,239.9,,,,,,,,,,,,,,
2020,08,11,07,11,00,238.7,,,,,,,,,,,,,,
2020,08,11,07,12,00,250.1,,,,,,,,,,,,,,
2020,08,11,07,13,00,257.9,,,,,,,,,,,,,,
2020,08,11,07,14,00,258.0,,,,,,,,,,,,,,
2020,08,11,07,15,00,246.8,,,,,,,,,,,,,,
2020,08,11,07,16,00,252.1,,,,,,,,,,,,,,
2020,08,11,07,17,00,241.5,,,,,,,,,,,,,,
2020,08,11,07,18,00,244.1,,,,,,,,,,,,,,
2020,08,11,07,19,00,267.8,,,,,,,,,,,,,,
2020,08,11,07,20,00,256.5,,,,,,,,,,,,,,
2020,08,11,07,21,00,266.5,,,,,,,,,,,,,,
2020,08,11,07,22,00,249.6,,,,,,,,,,,,,,
2020,08,11,07,23,00,246.4,,,,,,,,,,,,,,
2020,08,11,07,24,00,248.5,,,,,,,,,,,,,,
2020,08,11,07,25,00,243.3,,,,,,,,,,,,,,
2020,08,11,07,26,00,249.8,,,,,,,,,,,,,,
2020,08,11,07,27,00,248.5,,,,,,,,,,,,,,
2020,08,11,07,28,00,252.4,,,,,,,,,,,,,,
2020,08,11,07,29,00,289.0,,,,,,,,,,,,,,
2020,08,11,07,30,00,283.1,,,,,,,,,,,,,,
2020,08,11,07,31,00,268.6,,,,,,,,,,,,,,
2020,08,11,07,32,00,271.3,,,,,,,,,,,,,,
2020,08,11,07,33,00,266.0,,,,,,,,,,,,,,
2020,08,11,07,34,00,261.8,,,,,,,,,,,,,,
2020,08,11,07,35,00,272.0,,,,,,,,,,,,,,
2020,08,11,07,36,00,264.0,,,,,,,,,,,,,,
2020,08,11,07,37,00,263.2,,,,,,,,,,,,,,
2020,08,11,07,38,00,275.6,,,,,,,,,,,,,,
2020,08,11,07,39,00,278.7,,,,,,,,,,,,,,
2020,08,11,07,40,00,282.9,,,,,,,,,,,,,,
2020,08,11,07,41,00,282.4,,,,,,,,,,,,,,
2020,08,11,07,42,00,278.9,,,,,,,,,,,,,,
2020,08,11,07,43,00,277.1,,,,,,,,,,,,,,
2020,08,11,07,44,00,284.0,,,,,,,,,,,,,,
2020,08,11,07,45,00,280.6,,,,,,,,,,,,,,
2020,08,11,07,46,00,271.7,,,,,,,,,,,,,,
2020,08,11,07,47,00,273.0,,,,,,,,,,,,,,
2020,08,11,07,48,00,268.0,,,,,,,,,,,,,,
2020,08,11,07,49,00,292.2,,,,,,,,,,,,,,
2020,08,11,07,50,00,300.3,,,,,,,,,,,,,,
2020,08,11,07,51,00,274.7,,,,,,,,,,,,,,
2020,08,11,07,52,00,257.8,,,,,,,,,,,,,,
2020,08,11,07,53,00,255.7,,,,,,,,,,,,,,
2020,08,11,07,54,00,255.7,,,,,,,,,,,,,,
2020,08,11,07,55,00,270.1,,,,,,,,,,,,,,
2020,08,11,07,56,00,273.2,,,,,,,,,,,,,,
2020,08,11,07,57,00,261.3,,,,,,,,,,,,,,
2020,08,11,07,58,00,253.4,,,,,,,,,,,,,,
2020,08,11,07,59,00,269.9,,,,,,,,,,,,,,
2020,08,11,08,00,00,265.3,,,,,,,,,,,,,,
2020,08,11,08,01,00,260.1,,,,,,,,,,,,,,
2020,08,11,08,02,00,266.2,,,,,,,,,,,,,,
2020,08,11,08,03,00,259.7,,,,,,,,,,,,,,
2020,08,11,08,04,00,263.8,,,,,,,,,,,,,,
2020,08,11,08,05,00,258.3,,,,,,,,,,,,,,
2020,08,11,08,06,00,257.5,,,,,,,,,,,,,,
2020,08,11,08,07,00,273.0,,,,,,,,,,,,,,
2020,08,11,08,08,00,253.1,,,,,,,,,,,,,,
2020,08,11,08,09,00,267.2,,,,,,,,,,,,,,
2020,08,11,08,10,00,284.9,,,,,,,,,,,,,,
2020,08,11,08,11,00,264.2,,,,,,,,,,,,,,
2020,08,11,08,12,00,275.1,,,,,,,,,,,,,,
2020,08,11,08,13,00,275.9,,,,,,,,,,,,,,
2020,08,11,08,14,00,272.5,,,,,,,,,,,,,,
2020,08,11,08,15,00,260.9,,,,,,,,,,,,,,
2020,08,11,08,16,00,265.2,,,,,,,,,,,,,,
2020,08,11,08,17,00,279.4,,,,,,,,,,,,,,
2020,08,11,08,18,00,289.4,,,,,,,,,,,,,,
2020,08,11,08,19,00,280.7,,,,,,,,,,,,,,
2020,08,11,08,20,00,283.0,,,,,,,,,,,,,,
2020,08,11,08,21,00,267.2,,,,,,,,,,,,,,
2020,08,11,08,22,00,245.4,,,,,,,,,,,,,,
2020,08,11,08,23,00,255.2,,,,,,,,,,,,,,
2020,08,11,08,24,00,251.1,,,,,,,,,,,,,,
2020,08,11,08,25,00,267.8,,,,,,,,,,,,,,
2020,08,11,08,26,00,277.5,,,,,,,,,,,,,,
2020,08,11,08,27,00,288.6,,,,,,,,,,,,,,
2020,08,11,08,28,00,289.8,,,,,,,,,,,,,,
2020,08,11,08,29,00,281.5,,,,,,,,,,,,,,
2020,08,11,08,30,00,285.5,,,,,,,,,,,,,,
2020,08,11,08,31,00,290.1,,,,,,,,,,,,,,
2020,08,11,08,32,00,311.9,,,,,,,,,,,,,,
2020,08,11,08,33,00,284.5,,,,,,,,,,,,,,
2020,08,11,08,34,00,289.6,,,,,,,,,,,,,,
2020,08,11,08,35,00,285.8,,,,,,,,,,,,,,
2020,08,11,08,36,00,289.0,,,,,,,,,,,,,,
2020,08,11,08,37,00,280.1,,,,,,,,,,,,,,
2020,08,11,08,38,00,281.7,,,,,,,,,,,,,,
2020,08,11,08,39,00,282.7,,,,,,,,,,,,,,
2020,08,11,08,40,00,292.4,,,,,,,,,,,,,,
2020,08,11,08,41,00,303.3,,,,,,,,,,,,,,
2020,08,11,08,42,00,294.8,,,,,,,,,,,,,,
2020,08,11,08,43,00,298.1,,,,,,,,,,,,,,
2020,08,11,08,44,00,301.9,,,,,,,,,,,,,,
2020,08,11,08,45,00,307.0,,,,,,,,,,,,,,
2020,08,11,08,46,00,307.5,,,,,,,,,,,,,,
2020,08,11,08,47,00,292.0,,,,,,,,,,,,,,
2020,08,11,08,48,00,301.5,,,,,,,,,,,,,,
2020,08,11,08,49,00,267.4,,,,,,,,,,,,,,
2020,08,11,08,50,00,291.6,,,,,,,,,,,,,,
2020,08,11,08,51,00,292.2,,,,,,,,,,,,,,
2020,08,11,08,52,00,275.2,,,,,,,,,,,,,,
2020,08,11,08,53,00,271.5,,,,,,,,,,,,,,
2020,08,11,08,54,00,303.7,,,,,,,,,,,,,,
2020,08,11,08,55,00,332.9,,,,,,,,,,,,,,
2020,08,11,08,56,00,304.1,,,,,,,,,,,,,,
2020,08,11,08,57,00,267.0,,,,,,,,,,,,,,
2020,08,11,08,58,00,253.0,,,,,,,,,,,,,,
2020,08,11,08,59,00,255.4,,,,,,,,,,,,,,
2020,08,11,09,00,00,274.3,,,,,,,,,,,,,,
2020,08,11,09,01,00,278.1,,,,,,,,,,,,,,
2020,08,11,09,02,00,289.4,,,,,,,,,,,,,,
2020,08,11,09,03,00,273.7,,,,,,,,,,,,,,
2020,08,11,09,04,00,298.0,,,,,,,,,,,,,,
2020,08,11,09,05,00,296.9,,,,,,,,,,,,,,
2020,08,11,09,06,00,275.1,,,,,,,,,,,,,,
2020,08,11,09,07,00,262.7,,,,,,,,,,,,,,
2020,08,11,09,08,00,275.0,,,,,,,,,,,,,,
2020,08,11,09,09,00,268.4,,,,,,,,,,,,,,
2020,08,11,09,10,00,270.6,,,,,,,,,,,,,,
2020,08,11,09,11,00,295.9,,,,,,,,,,,,,,
2020,08,11,09,12,00,283.8,,,,,,,,,,,,,,
2020,08,11,09,13,00,307.8,,,,,,,,,,,,,,
2020,08,11,09,14,00,309.5,,,,,,,,,,,,,,
2020,08,11,09,15,00,315.6,,,,,,,,,,,,,,
2020,08,11,09,16,00,313.6,,,,,,,,,,,,,,
2020,08,11,09,17,00,293.3,,,,,,,,,,,,,,
2020,08,11,09,18,00,292.5,,,,,,,,,,,,,,
2020,08,11,09,19,00,289.9,,,,,,,,,,,,,,
2020,08,11,09,20,00,289.5,,,,,,,,,,,,,,
2020,08,11,09,21,00,291.5,,,,,,,,,,,,,,
2020,08,11,09,22,00,275.2,,,,,,,,,,,,,,
2020,08,11,09,23,00,287.0,,,,,,,,,,,,,,
2020,08,11,09,24,00,280.7,,,,,,,,,,,,,,
2020,08,11,09,25,00,292.3,,,,,,,,,,,,,,
2020,08,11,09,26,00,284.8,,,,,,,,,,,,,,
2020,08,11,09,27,00,288.7,,,,,,,,,,,,,,
2020,08,11,09,28,00,293.3,,,,,,,,,,,,,,
2020,08,11,09,29,00,275.1,,,,,,,,,,,,,,
2020,08,11,09,30,00,267.8,,,,,,,,,,,,,,
2020,08,11,09,31,00,279.2,,,,,,,,,,,,,,
2020,08,11,09,32,00,300.7,,,,,,,,,,,,,,
2020,08,11,09,33,00,281.9,,,,,,,,,,,,,,
2020,08,11,09,34,00,293.5,,,,,,,,,,,,,,
2020,08,11,09,35,00,292.5,,,,,,,,,,,,,,
2020,08,11,09,36,00,264.6,,,,,,,,,,,,,,
2020,08,11,09,37,00,257.7,,,,,,,,,,,,,,
2020,08,11,09,38,00,259.9,,,,,,,,,,,,,,
2020,08,11,09,39,00,290.7,,,,,,,,,,,,,,
2020,08,11,09,40,00,276.9,,,,,,,,,,,,,,
2020,08,11,09,41,00,274.4,,,,,,,,,,,,,,
2020,08,11,09,42,00,257.5,,,,,,,,,,,,,,
2020,08,11,09,43,00,243.3,,,,,,,,,,,,,,
2020,08,11,09,44,00,258.2,,,,,,,,,,,,,,
2020,08,11,09,45,00,256.0,,,,,,,,,,,,,,
2020,08,11,09,46,00,266.8,,,,,,,,,,,,,,
2020,08,11,09,47,00,279.2,,,,,,,,,,,,,,
2020,08,11,09,48,00,261.2,,,,,,,,,,,,,,
2020,08,11,09,49,00,264.7,,,,,,,,,,,,,,
2020,08,11,09,50,00,285.7,,,,,,,,,,,,,,
2020,08,11,09,51,00,273.6,,,,,,,,,,,,,,
2020,08,11,09,52,00,279.9,,,,,,,,,,,,,,
2020,08,11,09,53,00,275.1,,,,,,,,,,,,,,
2020,08,11,09,54,00,286.0,,,,,,,,,,,,,,